Regional Weather Roundup
Issued by NWS

Home | Current Version | Previous Version | Graphics & Text | Print | Product List | Glossary On
Versions: 1 2 3 4 5 6 7 8 9 10 11 12 13 14 15 16 17 18 19 20 21 22 23 24 25 26 27 28 29 30 31 32 33 34 35 36 37 38 39 40 41 42 43 44 45 46 47 48 49 50
000
ASUS43 KOAX 031202
RWRNE

WEATHER ROUNDUP FOR NEBRASKA
NATIONAL WEATHER SERVICE OMAHA NE
700 AM CDT TUE MAY 03 2016

NOTES: SATELLITE DATA IS BEING USED TO AUGMENT CLOUD COVER ABOVE
       12000 FEET.
       "FAIR" INDICATES FEW OR NO CLOUDS BELOW 12,000 FEET WITH NO
       SIGNIFICANT WEATHER AND/OR OBSTRUCTIONS TO VISIBILITY.

  * THESE STATIONS DO NOT REPORT WEATHER SUCH AS RAIN...SNOW OR FOG.

NEZ001>004-019>022-054>056-031300-
NEBRASKA PANHANDLE

CITY           SKY/WX    TMP DP  RH WIND       PRES   REMARKS
SCOTTSBLUFF    CLEAR     37  33  85 NW6       30.12R WCI  32
6HR MIN TEMP:  36; 6HR MAX TEMP:  49; 6HR PCP: TRACE;

ALLIANCE       CLEAR     32  30  92 NW6       30.10R WCI  26
6HR MIN TEMP:  29; 6HR MAX TEMP:  41;

CHADRON        CLEAR     34  32  92 SW3       30.11R
6HR MIN TEMP:  33; 6HR MAX TEMP:  48;

KIMBALL        CLEAR     36  32  86 NW10      30.13R WCI  28
SIDNEY         CLEAR     38  33  82 NW14      30.10R WCI  30
6HR MIN TEMP:  36; 6HR MAX TEMP:  45; 6HR PCP: TRACE;

$$

NEZ057>060-069>072-079>082-031300-
SOUTHWEST NEBRASKA

CITY           SKY/WX    TMP DP  RH WIND       PRES   REMARKS
NORTH PLATTE   FOG       39  39 100 NW3       30.07R VSB 1/4
6HR MIN TEMP:  36; 6HR MAX TEMP:  47; 6HR PCP:  0.01;

IMPERIAL       CLEAR     40  38  93 NW5       30.07R
6HR MIN TEMP:  40; 6HR MAX TEMP:  47; 6HR PCP:  0.03;

MCCOOK         CLEAR     38  37  97 NW6       30.05R WCI  33
6HR MIN TEMP:  38; 6HR MAX TEMP:  49; 6HR PCP:  0.04;

$$

NEZ005>010-023>029-035>040-094-031300-
NORTH CENTRAL NEBRASKA

CITY           SKY/WX    TMP DP  RH WIND       PRES   REMARKS
VALENTINE      CLEAR     33  31  92 W7        30.08R WCI  27
6HR MIN TEMP:  32; 6HR MAX TEMP:  45;

AINSWORTH      CLEAR     34  34  99 SW3       30.07R
BROKEN BOW     CLEAR     40  39  97 N9        30.05R WCI  34
6HR MIN TEMP:  36; 6HR MAX TEMP:  47;

ORD            CLEAR     35  34  96 NW6       30.05R WCI  30
6HR MIN TEMP:  34; 6HR MAX TEMP:  44;

$$

NEZ041-046>049-061>064-073>077-083>087-031300-
SOUTH CENTRAL NEBRASKA

CITY           SKY/WX    TMP DP  RH WIND       PRES   REMARKS
GRAND ISLAND   CLEAR     38  35  89 NW3       30.06R
6HR MIN TEMP:  37; 6HR MAX TEMP:  47;

AURORA         CLEAR     43  38  83 CALM      30.05S
HASTINGS       CLEAR     37  34  89 E3        30.04S
6HR MIN TEMP:  37; 6HR MAX TEMP:  48;

KEARNEY *      CLEAR     43  37  81 CALM      30.05S
YORK           CLEAR     39  37  93 CALM      30.06S
$$

NEZ011>018-030>034-042>045-031300-
NORTHEAST NEBRASKA

CITY           SKY/WX    TMP DP  RH WIND       PRES   REMARKS
NORFOLK        CLEAR     41  37  86 CALM      30.05R
6HR MIN TEMP:  38; 6HR MAX TEMP:  45;

ALBION         CLEAR     37  35  92 CALM      30.06S
BLAIR          CLEAR     46  40  81 CALM      30.05R
COLUMBUS *     CLEAR     37  30  75 CALM      30.06S
FREMONT        CLEAR     42  42 100 CALM      30.05S
TEKAMAH        CLEAR     41  40  96 CALM      30.05R
6HR MIN TEMP:  41; 6HR MAX TEMP:  49;

$$

NEZ050>053-065>068-078-088>093-031300-
SOUTHEAST NEBRASKA

CITY           SKY/WX    TMP DP  RH WIND       PRES   REMARKS
LINCOLN        CLEAR     41  39  93 N3        30.08R
6HR MIN TEMP:  39; 6HR MAX TEMP:  50;

OMAHA EPPLEY   PTCLDY    43  41  93 SE5       30.05R
6HR MIN TEMP:  42; 6HR MAX TEMP:  47;

BEATRICE       PTCLDY    39  39  98 CALM      30.07R
FALLS CITY     CLEAR     42  41  96 CALM      30.06R
6HR MIN TEMP:  42; 6HR MAX TEMP:  49;

$$

NEZ044-045-051>053-067-031300-
OMAHA AREA

CITY           SKY/WX    TMP DP  RH WIND       PRES   REMARKS
OMAHA EPPLEY   PTCLDY    43  41  93 SE5       30.05R
6HR MIN TEMP:  42; 6HR MAX TEMP:  47;

BLAIR          CLEAR     46  40  81 CALM      30.05R
FREMONT        CLEAR     42  42 100 CALM      30.05S
$$



USA.gov is the U.S. government's official web portal to all federal, state and local government web resources and services.